Home   Weather   Escanaba   Past weeks
Flag for USA

Past Weather in Escanaba, Michigan, USA — Yesterday and Last 2 Weeks

Now
42 °F

Sunny.


Feels Like: 35 °F
Forecast: 48 / 33 °F
Wind: 15 mph from West

Location: Escanaba Delta County Airport

Current Time: Oct 14, 2019 at 11:50:03 am

Latest Report: Oct 14, 2019 at 10:56 am


Visibility: 10 mi

Pressure: 29.94 "Hg

Humidity: 73%

Dew Point: 34 °F

Location of EscanabaLocation

Past Weather in Escanaba — Graph

°F

Escanaba Temperature Yesterday

Maximum temperature yesterday: 45 °F (at 2:29 pm)
Minimum temperature yesterday: 35 °F (at 5:56 am)
Average temperature yesterday: 38 °F

High & Low Weather Summary for the Past Weeks

 TemperatureHumidityPressure
High66 °F (Oct 1, 9:56 am)100% (Sep 30, 10:56 am)30.52 "Hg (Sep 30, 10:56 am)
Low29 °F (Oct 14, 6:56 am)37% (Oct 7, 4:56 pm)29.63 "Hg (Oct 13, 2:29 pm)
Average52 °F83%30.01 "Hg
* Reported Sep 29 9:56 am — Oct 14 9:56 am, Escanaba. Weather by CustomWeather, © 2019

Note: Actual official high and low records may vary slightly from our data, if they occured in-between our weather recording intervals... More about our weather records

Advertising

Escanaba Weather History for the Previous 24 Hours

Scroll right to see more
 ConditionsComfort  
Time TempWeatherWind HumidityBarometerVisibility
9:56 am
Mon, Oct 14
38 °FSunny.14 mph86%29.93 "Hg10 mi
8:56 am32 °FSunny.7 mph96%29.93 "Hg10 mi
7:56 am29 °FClear.6 mph96%29.92 "Hg10 mi
6:56 am29 °FClear.5 mph96%29.90 "Hg10 mi
5:56 am30 °FClear.7 mph96%29.88 "Hg10 mi
4:56 am31 °FClear.8 mph96%29.86 "Hg10 mi
3:56 am31 °FClear.9 mph92%29.84 "Hg10 mi
2:56 am31 °FClear.8 mph96%29.83 "Hg10 mi
1:56 am32 °FClear.9 mph92%29.82 "Hg10 mi
12:56 am33 °FClear.8 mph92%29.80 "Hg10 mi
11:56 pm
Sun, Oct 13
35 °FClear.7 mph85%29.80 "Hg10 mi
10:56 pm36 °FClear.12 mph82%29.79 "Hg10 mi
10:19 pm37 °FPassing clouds.13 mph75%29.76 "Hg10 mi
9:56 pm37 °FPassing clouds.13 mph79%29.78 "Hg10 mi
8:56 pm38 °FClear.10 mph76%29.77 "Hg10 mi
7:56 pm38 °FClear.7 mph73%29.75 "Hg10 mi
6:56 pm41 °FSunny.10 mph67%29.72 "Hg10 mi
5:56 pm42 °FScattered clouds.9 mph71%29.70 "Hg10 mi
4:56 pm42 °FOvercast.14 mph68%29.68 "Hg10 mi
3:56 pm43 °FMostly cloudy.15 mph60%29.66 "Hg10 mi
2:56 pm43 °FMostly cloudy.18 mph62%29.66 "Hg10 mi
2:29 pm45 °FMostly cloudy.16 mph57%29.63 "Hg10 mi
1:56 pm41 °FMore clouds than sun.13 mph70%29.66 "Hg10 mi
12:56 pm40 °FMostly cloudy.14 mph73%29.68 "Hg10 mi
12:28 pm39 °FLight rain. Mostly cloudy.13 mph75%29.66 "Hg10 mi
11:56 am40 °FPartly sunny.12 mph73%29.68 "Hg10 mi
Weather by CustomWeather, © 2019

See weather overview